| time (UTC) | temp C | wind direction | speed KPH | gust KPH | rain 1hr cm | rain 24hr cm | rain mn cm | humidity % | barometer mb |
| 20260905203035 | 22 | 330 | 8.0 | 17.7 | 0.00 | 0.00 | 0.00 | 39 | 1014.4 |
| 20260905201537 | 22 | 336 | 8.0 | 16.1 | 0.00 | 0.00 | 0.00 | 39 | 1014.6 |
| 20260905200033 | 22 | 328 | 9.7 | 17.7 | 0.00 | 0.00 | 0.00 | 41 | 1014.6 |
| 20260905194529 | 22 | 321 | 3.2 | 17.7 | 0.00 | 0.00 | 0.00 | 43 | 1014.7 |
| 20260905193028 | 21 | 25 | 9.7 | 16.1 | 0.00 | 0.00 | 0.00 | 43 | 1014.8 |
| 20260905191528 | 21 | 317 | 6.4 | 16.1 | 0.00 | 0.00 | 0.00 | 43 | 1014.9 |
| 20260905190032 | 21 | 360 | 4.8 | 16.1 | 0.00 | 0.00 | 0.00 | 47 | 1015.2 |
| 20260905184523 | 21 | 346 | 3.2 | 9.7 | 0.00 | 0.00 | 0.00 | 48 | 1015.3 |
| 20260905183024 | 21 | 336 | 6.4 | 16.1 | 0.00 | 0.00 | 0.00 | 47 | 1015.5 |
| 20260905181531 | 21 | 342 | 3.2 | 16.1 | 0.00 | 0.00 | 0.00 | 47 | 1015.6 |
| 20260905180019 | 20 | 5 | 6.4 | 16.1 | 0.00 | 0.00 | 0.00 | 48 | 1015.6 |
| 20260905174516 | 20 | 344 | 4.8 | 14.5 | 0.00 | 0.00 | 0.00 | 51 | 1015.7 |
| 20260905173018 | 19 | 322 | 8.0 | 16.1 | 0.00 | 0.00 | 0.00 | 51 | 1015.7 |
| 20260905171523 | 19 | 315 | 4.8 | 14.5 | 0.00 | 0.00 | 0.00 | 57 | 1015.6 |
| 20260905170010 | 18 | 355 | 6.4 | 14.5 | 0.00 | 0.00 | 0.00 | 59 | 1015.7 |
| 20260905164508 | 18 | 9 | 6.4 | 16.1 | 0.00 | 0.00 | 0.00 | 60 | 1015.4 |
| 20260905163006 | 18 | 5 | 8.0 | 16.1 | 0.00 | 0.00 | 0.00 | 62 | 1015.5 |
| 20260905161503 | 17 | 336 | 6.4 | 14.5 | 0.00 | 0.00 | 0.00 | 62 | 1015.7 |
| 20260905160007 | 17 | 336 | 8.0 | 19.3 | 0.00 | 0.00 | 0.00 | 62 | 1015.5 |
| 20260905154603 | 17 | 327 | 8.0 | 20.9 | 0.00 | 0.00 | 0.00 | 65 | 1015.5 |
| 20260905153055 | 15 | 336 | 6.4 | 12.9 | 0.00 | 0.00 | 0.00 | 72 | 1015.7 |
| 20260905151555 | 15 | 281 | 8.0 | 16.1 | 0.00 | 0.00 | 0.00 | 72 | 1015.4 |
| 20260905150057 | 15 | 302 | 4.8 | 14.5 | 0.00 | 0.00 | 0.00 | 73 | 1015.6 |
| 20260905144554 | 15 | 318 | 4.8 | 12.9 | 0.00 | 0.00 | 0.00 | 72 | 1015.5 |
| 20260905143053 | 14 | 309 | 4.8 | 11.3 | 0.00 | 0.00 | 0.00 | 74 | 1015.3 |
| 20260905141544 | 12 | 293 | 3.2 | 8.0 | 0.00 | 0.00 | 0.00 | 71 | 1015.4 |
| 20260905140045 | 12 | 292 | 3.2 | 6.4 | 0.00 | 0.00 | 0.00 | 72 | 1015.4 |
| 20260905134544 | 12 | 285 | 3.2 | 9.7 | 0.00 | 0.00 | 0.00 | 73 | 1015.6 |
| 20260905133040 | 11 | 253 | 3.2 | 9.7 | 0.00 | 0.00 | 0.00 | 73 | 1016.1 |
| 20260905131548 | 11 | 277 | 1.6 | 8.0 | 0.00 | 0.00 | 0.00 | 73 | 1014.3 |
| 20260905130038 | 11 | 333 | 3.2 | 8.0 | 0.00 | 0.00 | 0.00 | 73 | 1013.7 |
| 20260905124541 | 11 | 315 | 3.2 | 6.4 | 0.00 | 0.00 | 0.00 | 74 | 1013.7 |
| 20260905123036 | 12 | 275 | 0.0 | 6.4 | 0.00 | 0.00 | 0.00 | 74 | 1014.6 |
| 20260905121533 | 11 | 269 | 3.2 | 9.7 | 0.00 | 0.00 | 0.00 | 74 | 1015.2 |
| 20260905120030 | 11 | 249 | 4.8 | 12.9 | 0.00 | 0.00 | 0.00 | 74 | 1014.7 |
| 20260905114537 | 11 | 292 | 3.2 | 8.0 | 0.00 | 0.00 | 0.00 | 74 | 1013.6 |
| 20260905113033 | 10 | 292 | 1.6 | 8.0 | 0.00 | 0.00 | 0.00 | 75 | 1013.9 |
| 20260905111525 | 10 | 277 | 4.8 | 11.3 | 0.00 | 0.00 | 0.00 | 74 | 1013.7 |
| 20260905110022 | 10 | 273 | 1.6 | 8.0 | 0.00 | 0.00 | 0.00 | 74 | 1013.5 |
| 20260905104522 | 9 | 315 | 3.2 | 6.4 | 0.00 | 0.00 | 0.00 | 75 | 1013.0 |
| 20260905103024 | 9 | 314 | 3.2 | 8.0 | 0.00 | 0.00 | 0.00 | 75 | 1012.9 |
| 20260905101525 | 8 | 311 | 1.6 | 6.4 | 0.00 | 0.00 | 0.00 | 75 | 1012.8 |
| 20260905100021 | 8 | 312 | 3.2 | 4.8 | 0.00 | 0.00 | 0.00 | 74 | 1012.7 |
| 20260905094513 | 9 | 301 | 3.2 | 6.4 | 0.00 | 0.00 | 0.00 | 74 | 1012.7 |
| 20260905093012 | 9 | 261 | 1.6 | 4.8 | 0.00 | 0.00 | 0.00 | 72 | 1012.7 |
| 20260905091510 | 10 | 298 | 1.6 | 4.8 | 0.00 | 0.00 | 0.00 | 71 | 1012.7 |
| 20260905090013 | 10 | 326 | 0.0 | 3.2 | 0.00 | 0.00 | 0.00 | 72 | 1012.5 |
| 20260905084507 | 9 | 313 | 3.2 | 8.0 | 0.00 | 0.00 | 0.00 | 74 | 1012.2 |
| 20260905083004 | 9 | 297 | 1.6 | 3.2 | 0.00 | 0.00 | 0.00 | 70 | 1012.3 |
| 20260905081500 | 10 | 292 | 0.0 | 6.4 | 0.00 | 0.00 | 0.00 | 69 | 1012.5 |
| 20260905080104 | 10 | 297 | 1.6 | 9.7 | 0.00 | 0.00 | 0.00 | 70 | 1012.9 |
| 20260905074559 | 10 | 295 | 1.6 | 4.8 | 0.00 | 0.00 | 0.00 | 70 | 1012.8 |
| 20260905073057 | 10 | 288 | 3.2 | 6.4 | 0.00 | 0.00 | 0.00 | 68 | 1012.6 |
| 20260905071557 | 11 | 265 | 1.6 | 4.8 | 0.00 | 0.00 | 0.00 | 68 | 1012.7 |
| 20260905070058 | 10 | 283 | 3.2 | 6.4 | 0.00 | 0.00 | 0.00 | 69 | 1012.2 |
| 20260905064552 | 10 | 298 | 3.2 | 4.8 | 0.00 | 0.00 | 0.00 | 68 | 1012.3 |
| 20260905063100 | 11 | 284 | 3.2 | 6.4 | 0.00 | 0.00 | 0.00 | 67 | 1012.4 |
| 20260905061605 | 11 | 281 | 1.6 | 9.7 | 0.00 | 0.00 | 0.00 | 64 | 1012.3 |
| 20260905060044 | 11 | 277 | 1.6 | 3.2 | 0.00 | 0.00 | 0.00 | 64 | 1011.9 |
| 20260905054543 | 10 | 313 | 1.6 | 6.4 | 0.00 | 0.00 | 0.00 | 63 | 1011.3 |
| 20260905053047 | 10 | 291 | 1.6 | 6.4 | 0.00 | 0.00 | 0.00 | 61 | 1011.5 |
| 20260905051539 | 11 | 281 | 1.6 | 6.4 | 0.00 | 0.00 | 0.00 | 59 | 1011.8 |
| 20260905050039 | 11 | 292 | 1.6 | 4.8 | 0.00 | 0.00 | 0.00 | 57 | 1011.6 |
| 20260905044540 | 12 | 316 | 0.0 | 4.8 | 0.00 | 0.00 | 0.00 | 55 | 1011.6 |
| 20260905043038 | 13 | 311 | 0.0 | 3.2 | 0.00 | 0.00 | 0.00 | 53 | 1011.9 |
| 20260905041537 | 14 | 71 | 0.0 | 1.6 | 0.00 | 0.00 | 0.00 | 50 | 1011.9 |
| 20260905040034 | 15 | 71 | 0.0 | 3.2 | 0.00 | 0.00 | 0.00 | 49 | 1011.1 |
| 20260905034533 | 15 | 71 | 3.2 | 4.8 | 0.00 | 0.00 | 0.00 | 48 | 1011.1 |
| 20260905033035 | 16 | 319 | 0.0 | 1.6 | 0.00 | 0.00 | 0.00 | 46 | 1011.0 |
| 20260905031532 | 17 | 319 | 1.6 | 6.4 | 0.00 | 0.00 | 0.00 | 43 | 1010.6 |
| 20260905030036 | 17 | 31 | 0.0 | 4.8 | 0.00 | 0.00 | 0.00 | 44 | 1010.5 |
| 20260905024532 | 17 | 355 | 1.6 | 3.2 | 0.00 | 0.00 | 0.00 | 42 | 1010.1 |
| 20260905023027 | 18 | 5 | 0.0 | 3.2 | 0.00 | 0.00 | 0.00 | 41 | 1010.2 |
| 20260905021524 | 18 | 5 | 1.6 | 9.7 | 0.00 | 0.00 | 0.00 | 39 | 1009.6 |
| 20260905020028 | 19 | 346 | 6.4 | 17.7 | 0.00 | 0.00 | 0.00 | 39 | 1008.9 |
| 20260905014517 | 20 | 346 | 12.9 | 20.9 | 0.00 | 0.00 | 0.00 | 37 | 1008.5 |
| 20260905013014 | 20 | 360 | 14.5 | 27.4 | 0.00 | 0.00 | 0.00 | 36 | 1007.8 |
| 20260905011514 | 21 | 321 | 9.7 | 27.4 | 0.00 | 0.00 | 0.00 | 35 | 1007.8 |
| 20260905010013 | 21 | 331 | 14.5 | 30.6 | 0.00 | 0.00 | 0.00 | 34 | 1007.9 |
| 20260905004513 | 21 | 360 | 12.9 | 25.7 | 0.00 | 0.00 | 0.00 | 34 | 1007.8 |
| 20260905003012 | 21 | 310 | 12.9 | 27.4 | 0.00 | 0.00 | 0.00 | 33 | 1008.0 |
| 20260905001510 | 22 | 344 | 14.5 | 33.8 | 0.00 | 0.00 | 0.00 | 33 | 1007.4 |
| 20260905000010 | 22 | 312 | 11.3 | 24.1 | 0.00 | 0.00 | 0.00 | 32 | 1007.3 |
| 20260904234509 | 23 | 320 | 14.5 | 29.0 | 0.00 | 0.00 | 0.00 | 31 | 1007.5 |
| 20260904233008 | 23 | 315 | 8.0 | 20.9 | 0.00 | 0.00 | 0.00 | 32 | 1007.4 |
| 20260904231507 | 23 | 11 | 9.7 | 24.1 | 0.00 | 0.00 | 0.00 | 32 | 1007.4 |
| 20260904230006 | 23 | 300 | 8.0 | 25.7 | 0.00 | 0.00 | 0.00 | 32 | 1007.5 |
| 20260904224505 | 23 | 320 | 9.7 | 20.9 | 0.00 | 0.00 | 0.00 | 32 | 1007.4 |
| 20260904223004 | 23 | 346 | 9.7 | 19.3 | 0.00 | 0.00 | 0.00 | 32 | 1007.2 |
| 20260904221613 | 23 | 343 | 9.7 | 24.1 | 0.00 | 0.00 | 0.00 | 33 | 1007.1 |
| 20260904214608 | 23 | 264 | 6.4 | 25.7 | 0.00 | 0.00 | 0.00 | 33 | 1006.5 |
| 20260904213056 | 24 | 351 | 9.7 | 22.5 | 0.00 | 0.00 | 0.00 | 33 | 1006.2 |
| 20260904211603 | 25 | 270 | 11.3 | 19.3 | 0.00 | 0.00 | 0.00 | 31 | 1006.0 |
| 20260904210055 | 25 | 241 | 8.0 | 16.1 | 0.00 | 0.00 | 0.00 | 31 | 1005.7 |
| 20260904204551 | 24 | 344 | 8.0 | 17.7 | 0.00 | 0.00 | 0.00 | 32 | 1005.5 |